Tracking 31027 objects as of 19-Jul-2025
HD Live streaming from Space Station
objects crossing your sky now

COSMOS 1153

Track COSMOS 1153 now!
10-day predictions
COSMOS 1153 is classified as:


NORAD ID: 11680
Int'l Code: 1980-007A
Perigee: 965.8 km
Apogee: 1,020.2 km
Inclination: 82.9 °
Period: 104.8 minutes
Semi major axis: 7363 km
RCS: 3.444 m2 (large)
Launch date: January 25, 1980
Source: Commonwealth of Independent States (former USSR) (CIS)
Launch site: PLESETSK MISSILE AND SPACE COMPLEX (PKMTR)
Your satellite tracking list
ST5-A
Track 1 satellite(s)




NASA's NSSDC Master Catalog

Two Line Element Set (TLE):
1 11680U 80007A   25199.58223332  .00000029  00000-0  15046-4 0  9996
2 11680  82.9304  57.4522 0036940 182.9332 205.7785 13.73834233276702
Source of the keplerian elements: AFSPC